1580598046,2020-02-02 00:00,73.22,976.28,0.00,1005.19,11.09,0.00,240,0.1
1580598106,2020-02-02 00:01,74.25,976.28,0.00,1005.20,10.94,0.00,240,0.1
1580598167,2020-02-02 00:02,74.28,976.25,0.00,1005.17,10.91,0.00,240,0.1
1580598227,2020-02-02 00:03,73.30,976.30,0.00,1005.22,11.02,0.00,240,0.1
1580598287,2020-02-02 00:04,74.40,976.35,0.00,1005.26,10.88,0.00,240,0.1
1580598347,2020-02-02 00:05,74.30,976.36,0.00,1005.27,10.88,0.00,240,0.1
1580598407,2020-02-02 00:06,73.98,976.34,0.00,1005.26,10.88,0.00,240,0.1
1580598467,2020-02-02 00:07,74.45,976.35,0.00,1005.27,10.83,0.00,240,0.1
1580598527,2020-02-02 00:08,75.00,976.36,0.00,1005.28,10.80,0.00,240,0.1
1580598587,2020-02-02 00:09,75.82,976.36,0.00,1005.28,10.73,0.00,240,0.1
1580598647,2020-02-02 00:10,75.48,976.46,0.00,1005.38,10.71,0.00,240,0.1
1580598707,2020-02-02 00:11,75.68,976.41,0.00,1005.32,10.67,0.00,240,0.1
1580598768,2020-02-02 00:12,75.98,976.52,0.00,1005.43,10.66,0.00,240,0.1
1580598828,2020-02-02 00:13,76.52,976.44,0.00,1005.35,10.62,0.00,240,0.1
1580598888,2020-02-02 00:14,77.48,976.49,0.00,1005.40,10.56,0.00,240,0.1
1580598948,2020-02-02 00:15,78.07,976.45,0.00,1005.36,10.45,0.00,240,0.1
1580599008,2020-02-02 00:16,78.32,976.48,0.00,1005.40,10.44,0.00,240,0.1
1580599068,2020-02-02 00:17,78.83,976.49,0.00,1005.40,10.37,0.00,240,0.1
1580599128,2020-02-02 00:18,79.01,976.56,0.00,1005.47,10.34,0.00,240,0.1
1580599188,2020-02-02 00:19,78.66,976.59,0.00,1005.51,10.42,0.00,240,0.1
1580599249,2020-02-02 00:20,79.02,976.64,0.00,1005.55,10.37,0.00,240,0.1
1580599309,2020-02-02 00:21,79.84,976.57,0.00,1005.48,10.29,0.00,240,0.1
1580599369,2020-02-02 00:22,80.17,976.63,0.00,1005.55,10.21,0.00,240,0.1
1580599429,2020-02-02 00:23,80.05,976.66,0.00,1005.57,10.23,0.00,240,0.1
1580599489,2020-02-02 00:24,79.69,976.47,0.00,1005.39,10.25,0.00,240,0.1
1580599549,2020-02-02 00:25,80.14,976.63,0.00,1005.54,10.24,0.00,240,0.1
1580599609,2020-02-02 00:26,80.27,976.64,0.00,1005.56,10.22,0.00,240,0.1
1580599669,2020-02-02 00:27,80.71,976.69,0.00,1005.61,10.16,0.00,240,0.1
1580599729,2020-02-02 00:28,80.83,976.60,0.00,1005.51,10.16,0.00,240,0.1
1580599790,2020-02-02 00:29,81.74,976.67,0.00,1005.59,10.13,0.00,240,0.1
1580599850,2020-02-02 00:30,81.58,976.63,0.00,1005.55,10.11,0.00,240,0.1
1580599910,2020-02-02 00:31,81.24,976.70,0.00,1005.61,10.13,0.00,240,0.1
1580599970,2020-02-02 00:32,81.79,976.64,0.00,1005.56,10.08,0.00,240,0.1
1580600030,2020-02-02 00:33,81.89,976.76,0.00,1005.68,10.07,0.00,240,0.1
1580600090,2020-02-02 00:34,81.36,976.72,0.00,1005.64,10.13,0.00,240,0.1
1580600150,2020-02-02 00:35,82.11,976.52,0.00,1005.44,10.05,0.00,240,0.1
1580600210,2020-02-02 00:36,81.73,976.56,0.00,1005.48,10.12,0.00,240,0.1
1580600271,2020-02-02 00:37,82.27,976.79,0.00,1005.71,10.08,0.00,240,0.1
1580600331,2020-02-02 00:38,82.18,976.83,0.00,1005.74,10.11,0.00,240,0.1
1580600391,2020-02-02 00:39,82.52,976.83,0.00,1005.74,10.09,0.00,240,0.1
1580600451,2020-02-02 00:40,82.25,976.81,0.00,1005.73,10.10,0.00,240,0.1
1580600511,2020-02-02 00:41,82.78,976.87,0.00,1005.79,10.03,0.00,240,0.1
1580600571,2020-02-02 00:42,83.29,976.82,0.00,1005.74,9.97,0.00,240,0.1
1580600631,2020-02-02 00:43,83.13,976.81,0.00,1005.73,10.00,0.00,240,0.1
1580600691,2020-02-02 00:44,83.12,976.91,0.00,1005.82,10.03,0.00,240,0.1
1580600751,2020-02-02 00:45,83.28,976.88,0.00,1005.79,10.01,0.00,240,0.1
1580600811,2020-02-02 00:46,83.41,976.93,0.00,1005.85,10.01,0.00,240,0.1
1580600871,2020-02-02 00:47,83.63,976.90,0.00,1005.81,9.95,0.00,240,0.1
1580600931,2020-02-02 00:48,84.36,976.92,0.00,1005.84,9.95,0.00,240,0.1
1580600991,2020-02-02 00:49,83.76,977.01,0.00,1005.92,9.96,0.00,240,0.1
1580601052,2020-02-02 00:50,84.01,976.97,0.00,1005.89,9.97,0.00,240,0.1
1580601112,2020-02-02 00:51,84.53,977.00,0.00,1005.92,9.88,0.00,240,0.1
1580601172,2020-02-02 00:52,84.60,977.00,0.00,1005.91,9.91,0.00,240,0.1
1580601232,2020-02-02 00:53,84.56,977.02,0.00,1005.94,9.89,0.00,240,0.1
1580601292,2020-02-02 00:54,84.32,977.02,0.00,1005.93,9.94,0.00,240,0.1
1580601352,2020-02-02 00:55,84.52,977.07,0.00,1005.98,9.92,0.00,240,0.1
1580601412,2020-02-02 00:56,84.40,977.07,0.00,1005.99,9.94,0.00,240,0.1
1580601472,2020-02-02 00:57,84.76,977.14,0.00,1006.05,9.93,0.00,240,0.1
1580601533,2020-02-02 00:58,84.51,977.11,0.00,1006.02,9.91,0.00,240,0.1
1580601593,2020-02-02 00:59,84.68,977.14,0.00,1006.05,9.90,0.00,240,0.1
1580601653,2020-02-02 01:00,84.92,977.19,0.00,1006.10,9.88,0.00,240,0.1
1580601713,2020-02-02 01:01,84.61,977.08,0.00,1006.00,9.92,0.00,240,0.1
1580601773,2020-02-02 01:02,84.32,977.16,0.00,1006.07,10.00,0.00,240,0.1
1580601833,2020-02-02 01:03,84.39,977.17,0.00,1006.09,9.97,0.00,240,0.1
1580601893,2020-02-02 01:04,84.58,977.13,0.00,1006.05,9.94,0.00,240,0.1
1580601953,2020-02-02 01:05,84.95,977.20,0.00,1006.12,9.88,0.00,240,0.1
1580602013,2020-02-02 01:06,84.91,977.16,0.00,1006.08,9.96,0.00,240,0.1
1580602073,2020-02-02 01:07,85.01,977.20,0.00,1006.11,9.98,0.00,240,0.1
1580602134,2020-02-02 01:08,84.94,977.35,0.00,1006.26,9.99,0.00,240,0.1
1580602194,2020-02-02 01:09,84.89,977.32,0.00,1006.24,10.00,0.00,240,0.1
1580602254,2020-02-02 01:10,85.34,977.36,0.00,1006.27,9.91,0.00,240,0.1
1580602314,2020-02-02 01:11,85.86,977.31,0.00,1006.23,9.89,0.00,240,0.1
1580602374,2020-02-02 01:12,86.14,977.51,0.00,1006.42,9.93,0.00,240,0.1
1580602434,2020-02-02 01:13,86.19,977.52,0.00,1006.43,9.90,0.00,240,0.1
1580602494,2020-02-02 01:14,86.34,977.60,0.00,1006.51,9.95,0.00,240,0.1
1580602555,2020-02-02 01:15,86.50,977.58,0.00,1006.49,9.93,0.00,240,0.1
1580602615,2020-02-02 01:16,87.12,977.54,0.00,1006.46,9.89,0.00,240,0.1
1580602675,2020-02-02 01:17,87.15,977.51,0.00,1006.43,9.91,0.00,240,0.1
1580602735,2020-02-02 01:18,87.19,977.52,0.00,1006.43,9.92,0.00,240,0.1
1580602795,2020-02-02 01:19,87.40,977.63,0.00,1006.55,9.87,0.00,240,0.1
1580602855,2020-02-02 01:20,87.77,977.66,0.00,1006.58,9.84,0.00,240,0.1
1580602915,2020-02-02 01:21,87.86,977.62,0.00,1006.54,9.79,0.00,240,0.1
1580602975,2020-02-02 01:22,88.00,977.67,0.00,1006.59,9.78,0.00,240,0.1
1580603035,2020-02-02 01:23,88.25,977.64,0.00,1006.56,9.71,0.00,240,0.1
1580603095,2020-02-02 01:24,88.26,977.67,0.00,1006.59,9.75,0.00,240,0.1
1580603155,2020-02-02 01:25,88.71,977.75,0.00,1006.67,9.64,0.00,240,0.1
1580603215,2020-02-02 01:26,88.71,977.33,0.00,1006.25,9.62,0.00,240,0.1
1580603276,2020-02-02 01:27,87.52,977.64,0.00,1006.56,9.75,0.00,240,0.1
1580603336,2020-02-02 01:28,87.27,977.66,0.00,1006.58,9.77,0.00,240,0.1
1580603396,2020-02-02 01:29,87.57,977.71,0.00,1006.63,9.73,0.00,240,0.1
1580603456,2020-02-02 01:30,87.45,977.78,0.00,1006.70,9.74,0.00,240,0.1
1580603516,2020-02-02 01:31,87.70,977.77,0.00,1006.69,9.69,0.00,240,0.1
1580603576,2020-02-02 01:32,87.96,977.77,0.00,1006.69,9.64,0.00,240,0.1
1580603636,2020-02-02 01:33,87.90,977.78,0.00,1006.69,9.66,0.00,240,0.1
1580603696,2020-02-02 01:34,88.05,977.71,0.00,1006.63,9.64,0.00,240,0.1
1580603757,2020-02-02 01:35,87.94,977.78,0.00,1006.70,9.63,0.00,240,0.1
1580603817,2020-02-02 01:36,88.18,977.78,0.00,1006.70,9.68,0.00,240,0.1
1580603877,2020-02-02 01:37,87.86,977.76,0.00,1006.68,9.69,0.00,240,0.1
1580603937,2020-02-02 01:38,88.21,977.79,0.00,1006.71,9.59,0.00,240,0.1
1580603997,2020-02-02 01:39,88.12,977.76,0.00,1006.68,9.55,0.00,240,0.1
1580604058,2020-02-02 01:40,88.19,977.78,0.00,1006.70,9.55,0.00,240,0.1
1580604118,2020-02-02 01:41,88.34,977.72,0.00,1006.63,9.51,0.00,240,0.1
1580604178,2020-02-02 01:42,88.60,977.76,0.00,1006.67,9.51,0.00,240,0.1
1580604238,2020-02-02 01:43,88.72,977.76,0.00,1006.68,9.52,0.00,240,0.1
1580604298,2020-02-02 01:44,88.50,977.82,0.00,1006.73,9.51,0.00,240,0.1
1580604358,2020-02-02 01:45,88.42,977.82,0.00,1006.74,9.50,0.00,240,0.1
1580604418,2020-02-02 01:46,87.98,977.88,0.00,1006.80,9.57,0.00,240,0.1
1580604478,2020-02-02 01:47,88.30,977.76,0.00,1006.68,9.56,0.00,240,0.1
1580604539,2020-02-02 01:48,87.85,977.80,0.00,1006.72,9.48,0.00,240,0.1
1580604599,2020-02-02 01:49,87.71,977.83,0.00,1006.75,9.52,0.00,240,0.1
1580604659,2020-02-02 01:50,87.54,977.90,0.00,1006.82,9.53,0.00,240,0.1
1580604719,2020-02-02 01:51,87.31,977.88,0.00,1006.80,9.56,0.00,240,0.1
1580604779,2020-02-02 01:52,87.52,977.93,0.00,1006.84,9.48,0.00,240,0.1
1580604840,2020-02-02 01:54,87.18,977.94,0.00,1006.86,9.49,0.00,240,0.1
1580604900,2020-02-02 01:55,87.60,977.96,0.00,1006.87,9.44,0.00,240,0.1
1580604960,2020-02-02 01:56,87.75,978.03,0.00,1006.94,9.47,0.00,240,0.1
1580605020,2020-02-02 01:57,87.91,978.06,0.00,1006.97,9.44,0.00,240,0.1
1580605080,2020-02-02 01:58,88.01,977.97,0.00,1006.89,9.42,0.00,240,0.1
1580605140,2020-02-02 01:59,88.00,977.98,0.00,1006.90,9.44,0.00,240,0.1
1580605200,2020-02-02 02:00,87.95,977.97,0.00,1006.89,9.36,0.00,240,0.1
1580605261,2020-02-02 02:01,88.24,977.97,0.00,1006.88,9.39,0.00,240,0.1
1580605321,2020-02-02 02:02,88.30,977.99,0.00,1006.91,9.36,0.00,240,0.1
1580605381,2020-02-02 02:03,88.14,978.02,0.00,1006.93,9.40,0.00,240,0.1
1580605441,2020-02-02 02:04,88.44,978.03,0.00,1006.94,9.38,0.00,240,0.1
1580605501,2020-02-02 02:05,88.70,978.02,0.00,1006.93,9.33,0.00,240,0.1
1580605561,2020-02-02 02:06,88.34,978.02,0.00,1006.94,9.31,0.00,240,0.1
1580605621,2020-02-02 02:07,88.16,978.14,0.00,1007.06,9.38,0.00,240,0.1
1580605682,2020-02-02 02:08,88.40,978.10,0.00,1007.01,9.28,0.00,240,0.1
1580605742,2020-02-02 02:09,88.39,978.08,0.00,1007.00,9.29,0.00,240,0.1
1580605802,2020-02-02 02:10,88.02,978.05,0.00,1006.97,9.30,0.00,240,0.1
1580605862,2020-02-02 02:11,87.73,978.05,0.00,1006.97,9.27,0.00,240,0.1
1580605922,2020-02-02 02:12,88.24,978.06,0.00,1006.97,9.31,0.00,240,0.1
1580605982,2020-02-02 02:13,87.84,978.14,0.00,1007.06,9.39,0.00,240,0.1
1580606042,2020-02-02 02:14,88.08,978.08,0.00,1007.00,9.29,0.00,240,0.1
1580606102,2020-02-02 02:15,87.84,978.11,0.00,1007.02,9.29,0.00,240,0.1
1580606163,2020-02-02 02:16,87.50,978.12,0.00,1007.03,9.28,0.00,240,0.1
1580606223,2020-02-02 02:17,87.59,978.17,0.00,1007.09,9.31,0.00,240,0.1
1580606283,2020-02-02 02:18,88.23,978.21,0.00,1007.13,9.22,0.00,240,0.1
1580606343,2020-02-02 02:19,87.67,978.19,0.00,1007.11,9.27,0.00,240,0.1
1580606403,2020-02-02 02:20,87.75,978.28,0.00,1007.19,9.26,0.00,240,0.1
1580606464,2020-02-02 02:21,87.92,978.26,0.00,1007.18,9.17,0.00,240,0.1
1580606524,2020-02-02 02:22,87.77,978.29,0.00,1007.21,9.19,0.00,240,0.1
1580606584,2020-02-02 02:23,88.07,978.29,0.00,1007.20,9.15,0.00,240,0.1
1580606644,2020-02-02 02:24,88.19,978.26,0.00,1007.18,9.20,0.00,240,0.1
1580606704,2020-02-02 02:25,88.16,978.28,0.00,1007.20,9.13,0.00,240,0.1
1580606764,2020-02-02 02:26,88.46,978.26,0.00,1007.18,9.09,0.00,240,0.1
1580606825,2020-02-02 02:27,88.37,978.30,0.00,1007.21,9.12,0.00,240,0.1
1580606885,2020-02-02 02:28,88.41,978.21,0.00,1007.12,9.05,0.00,240,0.1
1580606945,2020-02-02 02:29,88.71,978.27,0.00,1007.19,8.99,0.00,240,0.1
1580607005,2020-02-02 02:30,88.63,978.30,0.00,1007.22,9.04,0.00,240,0.1
1580607065,2020-02-02 02:31,88.70,978.29,0.00,1007.21,9.10,0.00,240,0.1
1580607125,2020-02-02 02:32,88.56,978.29,0.00,1007.21,9.11,0.00,240,0.1
1580607185,2020-02-02 02:33,88.57,978.28,0.00,1007.19,9.00,0.00,240,0.1
1580607245,2020-02-02 02:34,88.82,978.28,0.00,1007.20,9.01,0.00,240,0.1
1580607305,2020-02-02 02:35,88.73,978.28,0.00,1007.20,9.05,0.00,240,0.1
1580607365,2020-02-02 02:36,88.61,978.23,0.00,1007.15,9.08,0.00,240,0.1
1580607425,2020-02-02 02:37,88.54,978.25,0.00,1007.17,9.14,0.00,240,0.1
1580607486,2020-02-02 02:38,88.53,978.26,0.00,1007.17,9.06,0.00,240,0.1
1580607546,2020-02-02 02:39,88.85,978.27,0.00,1007.19,9.08,0.00,240,0.1
1580607606,2020-02-02 02:40,88.57,978.29,0.00,1007.21,9.09,0.00,240,0.1
1580607666,2020-02-02 02:41,88.35,978.27,0.00,1007.18,9.12,0.00,240,0.1
1580607726,2020-02-02 02:42,88.35,978.24,0.00,1007.16,9.09,0.00,240,0.1
1580607786,2020-02-02 02:43,88.45,978.26,0.00,1007.18,9.07,0.00,240,0.1
1580607846,2020-02-02 02:44,88.56,978.21,0.00,1007.12,9.06,0.00,240,0.1
1580607906,2020-02-02 02:45,88.59,978.22,0.00,1007.13,9.05,0.00,240,0.1
1580607967,2020-02-02 02:46,89.00,978.24,0.00,1007.15,9.07,0.00,240,0.1
1580608027,2020-02-02 02:47,88.58,978.22,0.00,1007.13,9.11,0.00,240,0.1
1580608087,2020-02-02 02:48,88.16,978.22,0.00,1007.14,9.16,0.00,240,0.1
1580608147,2020-02-02 02:49,88.46,978.20,0.00,1007.12,9.06,0.00,240,0.1
1580608207,2020-02-02 02:50,88.59,978.20,0.00,1007.12,9.00,0.00,240,0.1
1580608267,2020-02-02 02:51,88.64,978.20,0.00,1007.11,9.03,0.00,240,0.1
1580608328,2020-02-02 02:52,88.50,978.21,0.00,1007.12,9.05,0.00,240,0.1
1580608388,2020-02-02 02:53,88.61,978.23,0.00,1007.15,9.01,0.00,240,0.1
1580608448,2020-02-02 02:54,88.58,978.22,0.00,1007.13,9.07,0.00,240,0.1
1580608508,2020-02-02 02:55,88.29,978.27,0.00,1007.18,9.07,0.00,240,0.1
1580608568,2020-02-02 02:56,88.32,978.28,0.00,1007.19,9.11,0.00,240,0.1
1580608628,2020-02-02 02:57,88.44,978.25,0.00,1007.16,9.09,0.00,240,0.1
1580608688,2020-02-02 02:58,88.44,978.25,0.00,1007.17,9.05,0.00,240,0.1
1580608749,2020-02-02 02:59,88.28,978.25,0.00,1007.17,9.06,0.00,240,0.1
1580608809,2020-02-02 03:00,88.19,978.24,0.00,1007.16,9.06,0.00,240,0.1
1580608869,2020-02-02 03:01,88.05,978.21,0.00,1007.13,9.09,0.00,240,0.1
1580608929,2020-02-02 03:02,87.84,978.17,0.00,1007.09,9.13,0.00,240,0.1
1580608989,2020-02-02 03:03,87.75,978.23,0.00,1007.14,9.08,0.00,240,0.1
1580609049,2020-02-02 03:04,87.55,978.22,0.00,1007.13,9.13,0.00,240,0.1
1580609109,2020-02-02 03:05,87.48,978.18,0.00,1007.10,9.15,0.00,240,0.1
1580609169,2020-02-02 03:06,87.55,978.20,0.00,1007.11,9.12,0.00,240,0.1
1580609229,2020-02-02 03:07,87.32,978.20,0.00,1007.12,9.11,0.00,240,0.1
1580609289,2020-02-02 03:08,87.43,978.14,0.00,1007.06,9.12,0.00,240,0.1
1580609350,2020-02-02 03:09,87.50,978.17,0.00,1007.09,9.09,0.00,240,0.1
1580609410,2020-02-02 03:10,87.46,978.14,0.00,1007.05,9.08,0.00,240,0.1
1580609470,2020-02-02 03:11,87.30,978.11,0.00,1007.03,9.02,0.00,240,0.1
1580609530,2020-02-02 03:12,87.57,978.12,0.00,1007.04,9.02,0.00,240,0.1
1580609590,2020-02-02 03:13,87.47,978.16,0.00,1007.08,8.97,0.00,240,0.1
1580609650,2020-02-02 03:14,87.37,978.16,0.00,1007.08,8.93,0.00,240,0.1
1580609710,2020-02-02 03:15,87.12,978.21,0.00,1007.13,8.94,0.00,240,0.1
1580609770,2020-02-02 03:16,87.19,978.17,0.00,1007.08,8.87,0.00,240,0.1
1580609830,2020-02-02 03:17,87.10,978.22,0.00,1007.14,8.81,0.00,240,0.1
1580609890,2020-02-02 03:18,87.07,978.16,0.00,1007.07,8.79,0.00,240,0.1
1580609951,2020-02-02 03:19,87.23,978.20,0.00,1007.12,8.72,0.00,240,0.1
1580610011,2020-02-02 03:20,87.24,978.25,0.00,1007.16,8.72,0.00,240,0.1
1580610071,2020-02-02 03:21,87.40,978.22,0.00,1007.14,8.61,0.00,240,0.1
1580610131,2020-02-02 03:22,87.15,978.26,0.00,1007.17,8.70,0.00,240,0.1
1580610191,2020-02-02 03:23,87.13,978.26,0.00,1007.17,8.63,0.00,240,0.1
1580610251,2020-02-02 03:24,86.99,978.29,0.00,1007.21,8.64,0.00,240,0.1
1580610311,2020-02-02 03:25,87.10,978.27,0.00,1007.18,8.56,0.00,240,0.1
1580610371,2020-02-02 03:26,87.11,978.29,0.00,1007.20,8.58,0.00,240,0.1
1580610432,2020-02-02 03:27,87.41,978.31,0.00,1007.23,8.54,0.00,240,0.1
1580610492,2020-02-02 03:28,87.49,978.31,0.00,1007.22,8.51,0.00,240,0.1
1580610552,2020-02-02 03:29,87.42,978.32,0.00,1007.23,8.49,0.00,240,0.1
1580610612,2020-02-02 03:30,87.71,978.32,0.00,1007.24,8.44,0.00,240,0.1
1580610672,2020-02-02 03:31,87.25,978.41,0.00,1007.33,8.47,0.00,240,0.1
1580610732,2020-02-02 03:32,87.06,978.41,0.00,1007.33,8.45,0.00,240,0.1
1580610792,2020-02-02 03:33,86.92,978.39,0.00,1007.30,8.42,0.00,240,0.1
1580610852,2020-02-02 03:34,87.09,978.39,0.00,1007.31,8.38,0.00,240,0.1
1580610912,2020-02-02 03:35,86.83,978.44,0.00,1007.36,8.41,0.00,240,0.1
1580610973,2020-02-02 03:36,86.57,978.44,0.00,1007.36,8.48,0.00,240,0.1
1580611033,2020-02-02 03:37,86.11,978.43,0.00,1007.35,8.53,0.00,240,0.1
1580611093,2020-02-02 03:38,86.02,978.49,0.00,1007.41,8.54,0.00,240,0.1
1580611153,2020-02-02 03:39,85.75,978.50,0.00,1007.42,8.57,0.00,240,0.1
1580611213,2020-02-02 03:40,85.98,978.52,0.00,1007.43,8.60,0.00,240,0.1
1580611274,2020-02-02 03:41,86.09,978.49,0.00,1007.40,8.57,0.00,240,0.1
1580611334,2020-02-02 03:42,85.90,978.54,0.00,1007.46,8.62,0.00,240,0.1
1580611394,2020-02-02 03:43,85.79,978.56,0.00,1007.48,8.65,0.00,240,0.1
1580611454,2020-02-02 03:44,85.81,978.57,0.00,1007.49,8.73,0.00,240,0.1
1580611514,2020-02-02 03:45,85.62,978.62,0.00,1007.53,8.72,0.00,240,0.1
1580611574,2020-02-02 03:46,85.61,978.56,0.00,1007.48,8.72,0.00,240,0.1
1580611634,2020-02-02 03:47,85.54,978.61,0.00,1007.53,8.74,0.00,240,0.1
1580611694,2020-02-02 03:48,85.42,978.65,0.00,1007.56,8.77,0.00,240,0.1
1580611754,2020-02-02 03:49,85.49,978.63,0.00,1007.55,8.79,0.00,240,0.1
1580611814,2020-02-02 03:50,85.20,978.68,0.00,1007.60,8.87,0.00,240,0.1
1580611874,2020-02-02 03:51,85.55,978.73,0.00,1007.65,8.89,0.00,240,0.1
1580611934,2020-02-02 03:52,85.04,978.69,0.00,1007.61,8.83,0.00,240,0.1
1580611994,2020-02-02 03:53,84.42,978.68,0.00,1007.59,8.89,0.00,240,0.1
1580612054,2020-02-02 03:54,84.64,978.61,0.00,1007.52,8.81,0.00,240,0.1
1580612115,2020-02-02 03:55,84.67,978.54,0.00,1007.46,8.83,0.00,240,0.1
1580612175,2020-02-02 03:56,84.27,978.50,0.00,1007.41,8.84,0.00,240,0.1
1580612235,2020-02-02 03:57,84.32,978.45,0.00,1007.36,8.79,0.00,240,0.1
1580612295,2020-02-02 03:58,84.32,978.43,0.00,1007.34,8.69,0.00,240,0.1
1580612355,2020-02-02 03:59,84.49,978.50,0.00,1007.41,8.61,0.00,240,0.1
1580612416,2020-02-02 04:00,84.72,978.51,0.00,1007.43,8.59,0.00,240,0.1
1580612476,2020-02-02 04:01,84.35,978.53,0.00,1007.44,8.74,0.00,240,0.1
1580612536,2020-02-02 04:02,84.27,978.51,0.00,1007.43,8.66,0.00,240,0.1
1580612596,2020-02-02 04:03,84.56,978.51,0.00,1007.43,8.81,0.00,240,0.1
1580612656,2020-02-02 04:04,84.14,978.51,0.00,1007.42,8.79,0.00,240,0.1
1580612716,2020-02-02 04:05,84.32,978.54,0.00,1007.45,8.70,0.00,240,0.1
1580612777,2020-02-02 04:06,84.32,978.53,0.00,1007.45,8.72,0.00,240,0.1
1580612837,2020-02-02 04:07,84.26,978.49,0.00,1007.41,8.81,0.00,240,0.1
1580612897,2020-02-02 04:08,83.94,978.45,0.00,1007.37,8.91,0.00,240,0.1
1580612957,2020-02-02 04:09,83.57,978.51,0.00,1007.42,8.89,0.00,240,0.1
1580613017,2020-02-02 04:10,84.01,978.56,0.00,1007.48,8.77,0.00,240,0.1
1580613077,2020-02-02 04:11,84.15,978.56,0.00,1007.48,8.81,0.00,240,0.1
1580613137,2020-02-02 04:12,83.84,978.58,0.00,1007.50,8.83,0.00,240,0.1
1580613197,2020-02-02 04:13,83.58,978.52,0.00,1007.44,8.81,0.00,240,0.1
1580613258,2020-02-02 04:14,83.65,978.54,0.00,1007.45,8.88,0.00,240,0.1
1580613318,2020-02-02 04:15,83.17,978.57,0.00,1007.49,9.04,0.00,240,0.1
1580613378,2020-02-02 04:16,83.79,978.52,0.00,1007.44,8.77,0.00,240,0.1
1580613438,2020-02-02 04:17,83.79,978.46,0.00,1007.38,8.87,0.00,240,0.1
1580613498,2020-02-02 04:18,83.48,978.50,0.00,1007.41,8.99,0.00,240,0.1
1580613558,2020-02-02 04:19,83.18,978.49,0.00,1007.41,9.04,0.00,240,0.1
1580613618,2020-02-02 04:20,82.93,978.55,0.00,1007.46,9.02,0.00,240,0.1
1580613678,2020-02-02 04:21,83.25,978.56,0.00,1007.48,8.96,0.00,240,0.1
1580613738,2020-02-02 04:22,83.32,978.62,0.00,1007.54,8.89,0.00,240,0.1
1580613798,2020-02-02 04:23,83.91,978.61,0.00,1007.53,8.87,0.00,240,0.1
1580613858,2020-02-02 04:24,83.71,978.57,0.00,1007.49,8.93,0.00,240,0.1
1580613918,2020-02-02 04:25,83.93,978.60,0.00,1007.52,8.98,0.00,240,0.1
1580613978,2020-02-02 04:26,84.19,978.57,0.00,1007.49,8.93,0.00,240,0.1
1580614038,2020-02-02 04:27,84.27,978.50,0.00,1007.42,8.97,0.00,240,0.1
1580614098,2020-02-02 04:28,84.50,978.53,0.00,1007.44,8.96,0.00,240,0.1
1580614158,2020-02-02 04:29,84.15,978.49,0.00,1007.40,8.92,0.00,240,0.1
1580614218,2020-02-02 04:30,84.18,978.51,0.00,1007.42,8.98,0.00,240,0.1
1580614279,2020-02-02 04:31,84.01,978.53,0.00,1007.44,8.97,0.00,240,0.1
1580614339,2020-02-02 04:32,84.47,978.56,0.00,1007.48,8.81,0.00,240,0.1
1580614399,2020-02-02 04:33,84.80,978.55,0.00,1007.46,8.84,0.00,240,0.1
1580614459,2020-02-02 04:34,84.21,978.59,0.00,1007.51,9.00,0.00,240,0.1
1580614519,2020-02-02 04:35,83.96,978.62,0.00,1007.53,9.00,0.00,240,0.1
1580614579,2020-02-02 04:36,84.00,978.61,0.00,1007.53,9.02,0.00,240,0.1
1580614639,2020-02-02 04:37,83.65,978.63,0.00,1007.55,9.13,0.00,240,0.1
1580614700,2020-02-02 04:38,83.82,978.62,0.00,1007.54,8.92,0.00,240,0.1
1580614760,2020-02-02 04:39,84.46,978.56,0.00,1007.47,8.83,0.00,240,0.1
1580614820,2020-02-02 04:40,84.89,978.53,0.00,1007.44,8.79,0.00,240,0.1
1580614880,2020-02-02 04:41,85.18,978.47,0.00,1007.39,8.83,0.00,240,0.1
1580614940,2020-02-02 04:42,85.51,978.47,0.00,1007.39,8.70,0.00,240,0.1
1580615000,2020-02-02 04:43,85.43,978.47,0.00,1007.39,8.69,0.00,240,0.1
1580615060,2020-02-02 04:44,85.58,978.48,0.00,1007.39,8.69,0.00,240,0.1
1580615120,2020-02-02 04:45,85.34,978.44,0.00,1007.36,8.68,0.00,240,0.1
1580615180,2020-02-02 04:46,85.70,978.35,0.00,1007.27,8.63,0.00,240,0.1
1580615241,2020-02-02 04:47,85.25,978.38,0.00,1007.29,8.64,0.00,240,0.1
1580615301,2020-02-02 04:48,85.43,978.36,0.00,1007.28,8.57,0.00,240,0.1
1580615361,2020-02-02 04:49,85.38,978.37,0.00,1007.29,8.65,0.00,240,0.1
1580615421,2020-02-02 04:50,85.66,978.44,0.00,1007.36,8.61,0.00,240,0.1
1580615481,2020-02-02 04:51,85.45,978.44,0.00,1007.35,8.64,0.00,240,0.1
1580615541,2020-02-02 04:52,85.35,978.41,0.00,1007.32,8.68,0.00,240,0.1
1580615601,2020-02-02 04:53,85.40,978.44,0.00,1007.35,8.67,0.00,240,0.1
1580615661,2020-02-02 04:54,85.58,978.40,0.00,1007.32,8.74,0.00,240,0.1
1580615722,2020-02-02 04:55,85.12,978.41,0.00,1007.32,8.74,0.00,240,0.1
1580615782,2020-02-02 04:56,85.19,978.36,0.00,1007.28,8.71,0.00,240,0.1
1580615842,2020-02-02 04:57,85.19,978.41,0.00,1007.33,8.70,0.00,240,0.1
1580615902,2020-02-02 04:58,84.60,978.42,0.00,1007.34,8.88,0.00,240,0.1
1580615962,2020-02-02 04:59,84.38,978.38,0.00,1007.29,8.84,0.00,240,0.1
1580616022,2020-02-02 05:00,84.07,978.39,0.00,1007.31,8.72,0.00,240,0.1
1580616082,2020-02-02 05:01,84.69,978.35,0.00,1007.26,8.67,0.00,240,0.1
1580616143,2020-02-02 05:02,84.87,978.32,0.00,1007.24,8.59,0.00,240,0.1
1580616203,2020-02-02 05:03,84.46,978.30,0.00,1007.22,8.60,0.00,240,0.1
1580616263,2020-02-02 05:04,85.27,978.31,0.00,1007.22,8.41,0.00,240,0.1
1580616323,2020-02-02 05:05,85.20,978.28,0.00,1007.20,8.39,0.00,240,0.1
1580616383,2020-02-02 05:06,85.25,978.25,0.00,1007.17,8.36,0.00,240,0.1
1580616443,2020-02-02 05:07,85.12,978.32,0.00,1007.24,8.42,0.00,240,0.1
1580616503,2020-02-02 05:08,84.84,978.27,0.00,1007.18,8.51,0.00,240,0.1
1580616563,2020-02-02 05:09,84.99,978.31,0.00,1007.22,8.32,0.00,240,0.1
1580616624,2020-02-02 05:10,84.66,978.30,0.00,1007.21,8.45,0.00,240,0.1
1580616684,2020-02-02 05:11,84.54,978.28,0.00,1007.20,8.43,0.00,240,0.1
1580616744,2020-02-02 05:12,84.23,978.26,0.00,1007.18,8.48,0.00,240,0.1
1580616804,2020-02-02 05:13,84.33,978.28,0.00,1007.19,8.41,0.00,240,0.1
1580616864,2020-02-02 05:14,84.66,978.30,0.00,1007.22,8.29,0.00,240,0.1
1580616924,2020-02-02 05:15,84.53,978.30,0.00,1007.21,8.37,0.00,240,0.1
1580616984,2020-02-02 05:16,84.54,978.30,0.00,1007.22,8.33,0.00,240,0.1
1580617044,2020-02-02 05:17,84.59,978.36,0.00,1007.28,8.22,0.00,240,0.1
1580617104,2020-02-02 05:18,84.94,978.35,0.00,1007.27,8.18,0.00,240,0.1
1580617164,2020-02-02 05:19,84.99,978.42,0.00,1007.33,8.20,0.00,240,0.1
1580617224,2020-02-02 05:20,84.76,978.43,0.00,1007.35,8.26,0.00,240,0.1
1580617284,2020-02-02 05:21,85.26,978.45,0.00,1007.37,8.08,0.00,240,0.1
1580617345,2020-02-02 05:22,85.76,978.48,0.00,1007.39,8.10,0.00,240,0.1
1580617405,2020-02-02 05:23,85.44,978.48,0.00,1007.40,8.12,0.00,240,0.1
1580617465,2020-02-02 05:24,85.91,978.45,0.00,1007.37,8.13,0.00,240,0.1
1580617525,2020-02-02 05:25,85.12,978.43,0.00,1007.34,8.26,0.00,240,0.1
1580617585,2020-02-02 05:26,85.09,978.47,0.00,1007.38,8.28,0.00,240,0.1
1580617645,2020-02-02 05:27,84.80,978.49,0.00,1007.41,8.42,0.00,240,0.1
1580617705,2020-02-02 05:28,85.01,978.53,0.00,1007.45,8.39,0.00,240,0.1
1580617765,2020-02-02 05:29,84.91,978.52,0.00,1007.44,8.41,0.00,240,0.1
1580617826,2020-02-02 05:30,84.81,978.45,0.00,1007.37,8.42,0.00,240,0.1
1580617886,2020-02-02 05:31,84.94,978.43,0.00,1007.35,8.33,0.00,240,0.1
1580617946,2020-02-02 05:32,85.12,978.44,0.00,1007.36,8.29,0.00,240,0.1